TimeCST,TemperatureF,Dew PointF,Humidity,Sea Level PressureIn,VisibilityMPH,Wind Direction,Wind SpeedMPH,Gust SpeedMPH,PrecipitationIn,Events,Conditions,WindDirDegrees,DateUTC
12:54 AM,57.9,53.1,84,30.01,10.0,SSW,12.7,-,N/A,,Clear,210,2012-11-10 06:54:00
1:54 AM,57.0,53.1,87,30.02,10.0,SSW,10.4,-,N/A,,Scattered Clouds,200,2012-11-10 07:54:00
2:54 AM,55.9,51.1,84,30.01,10.0,SSW,11.5,-,N/A,,Clear,200,2012-11-10 08:54:00
3:54 AM,54.0,50.0,86,30.01,10.0,South,13.8,-,N/A,,Mostly Cloudy,190,2012-11-10 09:54:00
4:54 AM,55.0,48.9,80,30.02,10.0,South,12.7,-,N/A,,Overcast,190,2012-11-10 10:54:00
5:54 AM,55.0,48.0,77,30.02,10.0,South,13.8,-,N/A,,Mostly Cloudy,190,2012-11-10 11:54:00
6:54 AM,55.0,46.9,74,30.02,10.0,South,15.0,-,N/A,,Clear,190,2012-11-10 12:54:00
7:54 AM,57.0,48.0,72,30.03,10.0,South,17.3,-,N/A,,Clear,190,2012-11-10 13:54:00
8:54 AM,59.0,50.0,72,30.01,10.0,South,18.4,-,N/A,,Partly Cloudy,180,2012-11-10 14:54:00
9:54 AM,63.0,53.1,70,30.00,10.0,South,16.1,-,N/A,,Clear,180,2012-11-10 15:54:00
10:54 AM,66.9,55.0,66,29.98,10.0,South,20.7,27.6,N/A,,Clear,180,2012-11-10 16:54:00
11:54 AM,71.1,55.0,57,29.96,10.0,SSW,18.4,25.3,N/A,,Clear,200,2012-11-10 17:54:00
12:54 PM,72.0,54.0,53,29.95,10.0,SSW,21.9,27.6,N/A,,Clear,200,2012-11-10 18:54:00
1:54 PM,73.0,51.1,46,29.92,10.0,South,26.5,31.1,N/A,,Clear,190,2012-11-10 19:54:00
2:54 PM,73.0,50.0,44,29.93,10.0,South,19.6,31.1,N/A,,Clear,190,2012-11-10 20:54:00
3:54 PM,71.1,50.0,47,29.94,10.0,South,18.4,28.8,N/A,,Clear,180,2012-11-10 21:54:00
4:54 PM,66.9,52.0,59,29.95,10.0,South,20.7,27.6,N/A,,Clear,180,2012-11-10 22:54:00
5:54 PM,64.0,53.1,67,29.98,10.0,South,16.1,-,N/A,,Clear,170,2012-11-10 23:54:00
6:54 PM,64.0,53.1,67,29.99,10.0,South,20.7,-,N/A,,Clear,180,2012-11-11 00:54:00
7:54 PM,63.0,53.1,70,30.00,10.0,South,18.4,26.5,N/A,,Clear,180,2012-11-11 01:54:00
8:54 PM,62.1,52.0,70,29.99,10.0,South,20.7,26.5,N/A,,Clear,180,2012-11-11 02:54:00
10:54 PM,61.0,48.9,64,29.96,10.0,South,20.7,26.5,N/A,,Clear,180,2012-11-11 04:54:00
11:54 PM,61.0,48.0,62,29.96,10.0,South,20.7,26.5,N/A,,Clear,180,2012-11-11 05:54:00